This is the latest recevied weather packets stored in our database for station/object KB3KAV. If no packets are shown the sender has not sent any weather packets the latest 10 day(s).
| Time | Temp. | Humidity | Pressure | Rain* | Wind** | Luminosity | Snow |
|---|---|---|---|---|---|---|---|
| 1787406404 | 21.67° C | 83% | 1046.7 hPa | 0 mm | - | 243 W/m² | - |
| 1787405802 | 21.11° C | 85% | 1046.9 hPa | 0 mm | - | 248 W/m² | - |
| 1787405198 | 20.56° C | 86% | 1046.6 hPa | 0 mm | - | 274 W/m² | - |
| 1787403992 | 19.44° C | 86% | 1046.7 hPa | 0 mm | - | 330 W/m² | - |
| 1787403386 | 18.33° C | 87% | 1046.9 hPa | 0 mm | - | 218 W/m² | - |
| 1787402785 | 17.78° C | 89% | 1047 hPa | 0 mm | - | 102 W/m² | - |
| 1787402184 | 17.78° C | 88% | 1047.2 hPa | 0 mm | - | 134 W/m² | - |
| 1787401582 | 16.67° C | 91% | 1047.1 hPa | 0 mm | - | 105 W/m² | - |
| 1787400978 | 15.56° C | 94% | 1047.4 hPa | 0 mm | - | 85 W/m² | - |
| 1787400374 | 15° C | 95% | 1047.5 hPa | 0 mm | - | 95 W/m² | - |
| 1787399771 | 14.44° C | 95% | 1047.5 hPa | 0 mm | - | 68 W/m² | - |
| 1787399166 | 13.33° C | 95% | 1047.3 hPa | 0 mm | - | 84 W/m² | - |
| 1787398563 | 13.33° C | 95% | 1047.1 hPa | 0 mm | - | 43 W/m² | - |
| 1787397961 | 13.33° C | 95% | 1047.4 hPa | 0 mm | - | 38 W/m² | - |
| 1787397361 | 12.78° C | 95% | 1047.1 hPa | 0 mm | - | 40 W/m² | - |
| 1787396756 | 12.78° C | 95% | 1046.9 hPa | 0 mm | - | 29 W/m² | - |
| 1787396151 | 12.22° C | 95% | 1046.9 hPa | 0 mm | - | 20 W/m² | - |
| 1787395548 | 12.22° C | 95% | 1047.1 hPa | 0 mm | - | 11 W/m² | - |
| 1787394948 | 12.78° C | 95% | 1046.8 hPa | 0 mm | - | 5 W/m² | - |
| 1787394345 | 12.78° C | 95% | 1046.8 hPa | 0 mm | - | 2 W/m² | - |
| 1787393740 | 12.78° C | 95% | 1046.7 hPa | 0 mm | - | 0 W/m² | - |
| 1787393137 | 12.78° C | 95% | 1046.7 hPa | 0 mm | - | 0 W/m² | - |
| 1787392536 | 12.22° C | 95% | 1046.6 hPa | 0 mm | - | 0 W/m² | - |
| 1787391934 | 12.22° C | 95% | 1046.7 hPa | 0 mm | - | 0 W/m² | - |
| 1787391331 | 12.22° C | 95% | 1046.7 hPa | 0 mm | - | 0 W/m² | - |
* Rain latest hour (hover to see other rain measurements)
** Current wind speed in m/s (hover to see current wind gust speed)